Overview Statistics Trail Chart Weather Telemetry Raw packets
 

This is the latest recevied weather packets stored in our database for station/object ac2ev. If no packets are shown the sender has not sent any weather packets the latest 10 day(s).

<< 43 44 45 46 47 48 49 >>
Time Temp. Humidity Pressure Rain* Wind** Luminosity Snow
1788361451 22.78° C 89% 1014.2 hPa 0 mm - - -
1788361151 22.78° C 90% 1014.2 hPa 0 mm - - -
1788360851 22.22° C 90% 1014.2 hPa 0 mm - - -
1788360550 22.22° C 90% 1014.3 hPa 0 mm - - -
1788360340 22.22° C 90% 1014.4 hPa 0 mm - - -
1788360062 22.22° C 89% 1014.4 hPa 0 mm - - -
1788359651 22.22° C 89% 1014.4 hPa 0 mm - - -
1788359351 22.22° C 89% 1014.6 hPa 0 mm - - -
1788359051 21.67° C 89% 1014.5 hPa 0 mm - - -
1788358748 21.67° C 89% 1014.6 hPa 0 mm - - -
1788358447 21.67° C 88% 1014.7 hPa 0 mm - - -
1788358147 21.67° C 89% 1014.9 hPa 0 mm - - -
1788357845 21.11° C 89% 1014.9 hPa 0 mm - - -
1788357661 21.11° C 89% 1014.9 hPa 0 mm - - -
1788357245 21.11° C 89% 1014.9 hPa 0 mm - - -
1788356942 21.11° C 89% 1015 hPa 0 mm - - -
1788356641 20.56° C 89% 1015 hPa 0.51 mm - - -
1788356463 20.56° C 90% 1014.6 hPa 1.02 mm - - -
1788356041 20.56° C 90% 1014.7 hPa 1.52 mm - - -
1788355741 20.56° C 90% 1015.4 hPa 2.79 mm - - -
1788355441 20.56° C 90% 1015.5 hPa 4.83 mm - - -
1788355141 20.56° C 90% 1015.3 hPa 5.59 mm - - -
1788354842 20.56° C 90% 1015.2 hPa 5.84 mm - - -
1788354538 20.56° C 90% 1015.3 hPa 5.84 mm - - -
1788354343 20.56° C 90% 1015.5 hPa 5.84 mm - - -

* Rain latest hour (hover to see other rain measurements)
** Current wind speed in m/s (hover to see current wind gust speed)